Location: Canet
(43.3261°N, 5.3723°E)
Time: 19:30:42
(UTC+00:00)

Cosmos-2242 - Pass Details

Date: 24 January 2021
Orbit: 592 x 616 km, 82.5° (Epoch: 07 March)

Event Time Altitude Azimuth Distance (km) Brightness Sun altitude
Rises 17:51:27 0° 3° (N) 2,847 6.3 -13.1°
Reaches altitude 10° 17:54:00 10° 17° (NNE) 1,943 5.3 -13.5°
Maximum altitude 17:57:33 25° 73° (ENE) 1,235 4.0 -14.1°
Enters shadow 17:59:10 20° 106° (ESE) 1,411 4.4 -14.4°
Exits shadow 18:03:31 - 142° (SE) 2,804 6.2 -15.2°
Sets 18:03:37 0° 143° (SE) 2,845 6.2 -15.2°
